Almo, KY

7:42 PM CST on February 10, 2016 (GMT -0600)
Kyle-Oakley

Weather History for KCEY - April, 2013

Change the Weather History Date:

Thursday, April 18, 2013

  Actual Average (KPAH) Record (KPAH)
Temperature  
Mean Temperature 63 °F 59 °F  
Max Temperature 78 °F 70 °F 86 °F (2002)
Min Temperature 46 °F 47 °F 29 °F (2001)
Degree Days  
Heating Degree Days 2 7  
Month to date heating degree days 176  
Since 1 July heating degree days 3995  
Cooling Degree Days 0 1  
Month to date cooling degree days 18  
Year to date cooling degree days 25  
Growing Degree Days 13 (Base 50)    
Moisture  
Dew Point 62 °F    
Average Humidity 73    
Maximum Humidity 100    
Minimum Humidity 54    
Precipitation  
Precipitation 0.83 in 0.17 in 2.27 in (2013)
Month to date precipitation 2.69  
Year to date precipitation 14.21  
Snow  
Snow 0.00 in 0.00 in 0.50 in (1983)
Month to date snowfall 0.0  
Since 1 July snowfall 9.1  
Snow Depth -    
Sea Level Pressure  
Sea Level Pressure 29.76 in    
Wind  
Wind Speed 14 mph (South)    
Max Wind Speed 23 mph    
Max Gust Speed 36 mph    
Visibility 9 miles    
Events      
T = Trace of Precipitation, MM = Missing Value Source: NWS Daily Summary

Daily Weather History Graph

Daily Weather History Graph

Search for Another Location

Airport or City:

Trip Planner

Search our weather history database for the weather conditions in past years. The results will help you decide how hot, cold, wet, or windy it might be!

Date:

Astronomy

Apr. 18, 2013 Rise Set
Actual Time 6:15 AM CDT 7:30 PM CDT
Civil Twilight 5:48 AM CDT 7:57 PM CDT
Nautical Twilight 5:16 AM CDT 8:29 PM CDT
Astronomical Twilight 4:43 AM CDT 9:03 PM CDT
Moon 12:28 PM CDT (4/18) 1:43 AM CDT (4/18)
Length of Visible Light 14h 09m
Length of Day
13h 15m
First Quarter, 52% of the Moon is Illuminated
Apr 18
First Quarter
Apr 25
Full
May 2
Last Quarter
May 9
New
May 17
First Quarter

Hourly Weather History & Observations

Time (CDT) Temp. Windchill Dew Point Humidity Pressure Visibility Wind Dir Wind Speed Gust Speed Precip Events Conditions
12:15 AM 73.4 °F - 64.4 °F 73% 29.88 in 10.0 mi South 10.4 mph 19.6 mph N/A   Clear
12:35 AM 73.4 °F - 64.4 °F 73% 29.87 in 10.0 mi South 12.7 mph 24.2 mph N/A   Clear
12:55 AM 73.4 °F - 64.4 °F 73% 29.87 in 10.0 mi South 16.1 mph 24.2 mph N/A   Clear
1:15 AM 73.4 °F - 64.4 °F 73% 29.85 in 10.0 mi South 13.8 mph 28.8 mph N/A   Clear
1:35 AM 73.4 °F - 64.4 °F 73% 29.85 in 10.0 mi SSW 12.7 mph 20.7 mph N/A   Clear
1:55 AM 73.4 °F - 64.4 °F 73% 29.84 in 10.0 mi South 9.2 mph 21.9 mph N/A   Clear
2:15 AM 73.4 °F - 64.4 °F 73% 29.83 in 10.0 mi South 13.8 mph 21.9 mph N/A   Clear
2:35 AM 73.4 °F - 64.4 °F 73% 29.83 in 10.0 mi South 9.2 mph 19.6 mph N/A   Clear
2:55 AM 73.4 °F - 64.4 °F 73% 29.83 in 10.0 mi South 10.4 mph 17.3 mph N/A   Clear
3:15 AM 73.4 °F - 66.2 °F 78% 29.82 in 10.0 mi South 12.7 mph 20.7 mph N/A   Clear
3:35 AM 71.6 °F - 66.2 °F 83% 29.81 in 10.0 mi South 12.7 mph 20.7 mph N/A   Clear
3:55 AM 71.6 °F - 66.2 °F 83% 29.80 in 10.0 mi South 11.5 mph 24.2 mph N/A   Clear
4:15 AM 71.6 °F - 66.2 °F 83% 29.81 in 10.0 mi South 12.7 mph 19.6 mph N/A   Clear
4:35 AM 71.6 °F - 66.2 °F 83% 29.81 in 10.0 mi South 12.7 mph 19.6 mph N/A   Clear
4:55 AM 71.6 °F - 66.2 °F 83% 29.81 in 10.0 mi South 11.5 mph 24.2 mph N/A   Partly Cloudy
5:15 AM 71.6 °F - 66.2 °F 83% 29.81 in 10.0 mi South 12.7 mph 19.6 mph N/A   Partly Cloudy
5:35 AM 71.6 °F - 66.2 °F 83% 29.81 in 10.0 mi South 12.7 mph 21.9 mph N/A   Clear
6:15 AM 71.6 °F - 66.2 °F 83% 29.82 in 10.0 mi South 15.0 mph 20.7 mph N/A   Mostly Cloudy
6:35 AM 71.6 °F - 64.4 °F 78% 29.83 in 10.0 mi South 11.5 mph 23.0 mph N/A   Overcast
6:55 AM 71.6 °F - 64.4 °F 78% 29.83 in 10.0 mi South 13.8 mph 23.0 mph N/A   Overcast
7:15 AM 71.6 °F - 64.4 °F 78% 29.84 in 9.0 mi South 13.8 mph 23.0 mph N/A   Overcast
7:35 AM 71.6 °F - 64.4 °F 78% 29.84 in 10.0 mi South 13.8 mph 28.8 mph N/A   Overcast
7:55 AM 71.6 °F - 64.4 °F 78% 29.84 in 10.0 mi South 11.5 mph 29.9 mph N/A   Overcast
8:15 AM 71.6 °F - 64.4 °F 78% 29.82 in 10.0 mi South 15.0 mph 23.0 mph N/A   Mostly Cloudy
8:35 AM 73.4 °F - 64.4 °F 73% 29.82 in 10.0 mi South 12.7 mph 24.2 mph N/A   Mostly Cloudy
8:55 AM 73.4 °F - 64.4 °F 73% 29.82 in 10.0 mi South 17.3 mph 25.3 mph N/A   Mostly Cloudy
9:15 AM 73.4 °F - 64.4 °F 73% 29.81 in 10.0 mi South 23.0 mph 35.7 mph N/A   Mostly Cloudy
9:35 AM 73.4 °F - 64.4 °F 73% 29.81 in 10.0 mi South 17.3 mph 27.6 mph N/A   Mostly Cloudy
9:55 AM 75.2 °F - 64.4 °F 69% 29.81 in 10.0 mi South 20.7 mph 31.1 mph N/A   Scattered Clouds
10:15 AM 75.2 °F - 64.4 °F 69% 29.81 in 10.0 mi South 16.1 mph 25.3 mph N/A   Scattered Clouds
10:35 AM 73.4 °F - 62.6 °F 69% 29.81 in 10.0 mi South 18.4 mph 29.9 mph N/A   Scattered Clouds
10:55 AM 75.2 °F - 62.6 °F 65% 29.81 in 10.0 mi South 19.6 mph 32.2 mph N/A   Partly Cloudy
11:15 AM 75.2 °F - 64.4 °F 69% 29.81 in 10.0 mi South 19.6 mph 29.9 mph N/A   Partly Cloudy
11:35 AM 77.0 °F - 62.6 °F 61% 29.81 in 10.0 mi South 23.0 mph 35.7 mph N/A   Partly Cloudy
11:55 AM 77.0 °F - 62.6 °F 61% 29.80 in 10.0 mi SSW 19.6 mph 32.2 mph N/A   Scattered Clouds
12:15 PM 75.2 °F - 62.6 °F 65% 29.80 in 10.0 mi South 16.1 mph 24.2 mph N/A   Mostly Cloudy
12:35 PM 77.0 °F - 62.6 °F 61% 29.78 in 10.0 mi South 10.4 mph 23.0 mph N/A   Scattered Clouds
12:55 PM 78.8 °F - 62.6 °F 57% 29.76 in 10.0 mi South 21.9 mph 33.4 mph N/A   Partly Cloudy
1:15 PM 78.8 °F - 62.6 °F 57% 29.75 in 10.0 mi South 20.7 mph 32.2 mph N/A   Partly Cloudy
1:35 PM 77.0 °F - 62.6 °F 61% 29.75 in 10.0 mi SSW 13.8 mph 35.7 mph N/A   Clear
1:55 PM 78.8 °F - 62.6 °F 57% 29.74 in 10.0 mi South 20.7 mph 34.5 mph N/A   Partly Cloudy
2:15 PM 77.0 °F - 62.6 °F 61% 29.74 in 10.0 mi South 15.0 mph 31.1 mph N/A   Clear
2:35 PM 78.8 °F - 62.6 °F 57% 29.74 in 10.0 mi South 19.6 mph 29.9 mph N/A   Partly Cloudy
2:55 PM 77.0 °F - 62.6 °F 61% 29.72 in 10.0 mi South 15.0 mph 27.6 mph N/A   Partly Cloudy
3:35 PM 77.0 °F - 62.6 °F 61% 29.70 in 10.0 mi South 10.4 mph 25.3 mph N/A   Partly Cloudy
3:55 PM 77.0 °F - 62.6 °F 61% 29.69 in 10.0 mi South 12.7 mph 24.2 mph N/A   Clear
4:15 PM 77.0 °F - 62.6 °F 61% 29.69 in 10.0 mi South 11.5 mph 19.6 mph N/A   Partly Cloudy
4:35 PM 77.0 °F - 60.8 °F 57% 29.68 in 10.0 mi South 16.1 mph 21.9 mph N/A   Partly Cloudy
4:55 PM 77.0 °F - 60.8 °F 57% 29.66 in 10.0 mi South 16.1 mph 24.2 mph N/A   Clear
5:15 PM 77.0 °F - 59.0 °F 54% 29.65 in 10.0 mi South 12.7 mph 21.9 mph N/A   Clear
5:35 PM 77.0 °F - 59.0 °F 54% 29.65 in 10.0 mi South 9.2 mph 16.1 mph N/A   Partly Cloudy
5:55 PM 77.0 °F - 59.0 °F 54% 29.65 in 10.0 mi South 13.8 mph 24.2 mph N/A   Mostly Cloudy
6:15 PM 75.2 °F - 59.0 °F 57% 29.65 in 10.0 mi South 12.7 mph 25.3 mph N/A   Mostly Cloudy
6:35 PM 75.2 °F - 59.0 °F 57% 29.65 in 10.0 mi South 12.7 mph 18.4 mph N/A   Overcast
6:55 PM 75.2 °F - 59.0 °F 57% 29.64 in 10.0 mi South 15.0 mph 21.9 mph N/A   Overcast
7:15 PM 73.4 °F - 60.8 °F 65% 29.66 in 4.0 mi SSW 10.4 mph 18.4 mph N/A   Mostly Cloudy
7:35 PM 68.0 °F - 62.6 °F 83% 29.65 in 7.0 mi SSW 6.9 mph - 0.01 in   Mostly Cloudy
7:55 PM 68.0 °F - 64.4 °F 88% 29.65 in 5.0 mi SSW 5.8 mph - 0.03 in   Overcast
8:15 PM 66.2 °F - 64.4 °F 94% 29.63 in 3.0 mi South 6.9 mph - 0.04 in   Overcast
8:35 PM 66.2 °F - 64.4 °F 94% 29.63 in 5.0 mi South 8.1 mph - 0.08 in   Overcast
10:35 PM 51.8 °F - 51.8 °F 100% 29.70 in 2.0 mi NW 16.1 mph 24.2 mph 0.26 in   Unknown
10:55 PM 50.0 °F - 50.0 °F 100% 29.69 in 3.0 mi NW 12.7 mph 24.2 mph 0.36 in   Mostly Cloudy
11:15 PM 50.0 °F - 50.0 °F 100% 29.70 in 3.0 mi NW 13.8 mph 20.7 mph 0.11 in   Unknown
11:35 PM 48.2 °F - 48.2 °F 100% 29.72 in 3.0 mi NW 16.1 mph 29.9 mph 0.25 in   Overcast
11:55 PM 46.4 °F 40.1 °F 46.4 °F 100% 29.73 in 5.0 mi NW 15.0 mph 24.2 mph 0.36 in   Unknown